[[{"header":{"parameterUnit":"m.s-1","parameterCategory":1,"la1":30.2991,"la2":30.254,"lo1":-89.0895,"lo2":-89.0444,"dy":0.0017,"dx":0.0017,"nx":28,"ny":28,"refTime":"2026-02-24T09:00:00:Z","depth":0,"parameterNumber":2,"parameterNumberName":"U-component_of_WINDS"},"data":[0,0,0,0,0,0,0,0,0,0,0,0,0,0,0,0,0,0,0,0,0,0,0,0,0,0,0,0,0,0,0,0,0,0,0,0,0,0,0,0,0,0,0,0,0,0,0,0,0,0,0,0,0,0,0,0,0,0,1.9703,1.9705,0,1.9825,1.9826,1.9827,1.985,1.9849,1.9848,1.9847,1.9979,1.9983,1.9988,0,0,0,0,0,0,0,0,0,0,0,0,0,1.9499,1.9503,1.9703,1.9705,1.9706,1.9824,1.9826,1.9828,1.985,1.9849,1.9847,1.9846,1.9977,1.9983,1.9988,0,0,0,0,0,0,0,0,0,0,0,0,0,1.9601,1.9504,1.9703,1.9731,1.9735,1.9824,1.9826,1.9828,1.985,1.9849,1.9847,1.9846,1.9976,1.9982,1.9989,2.006,0,0,2.0009,2.0012,0,0,0,0,0,0,0,0,1.9595,1.9609,1.9726,1.973,1.9734,1.982,1.9803,1.9906,1.9851,1.9807,1.9847,1.9845,1.9928,1.9938,1.9965,2.0067,2.0072,2.001,2.0014,2.0017,2.0019,0,0,0,0,0,0,0,1.9588,1.9604,1.9752,1.9727,1.9732,1.9741,1.9754,1.9822,1.9875,1.981,1.9812,1.9826,1.993,1.9958,1.9968,2.0074,2.001,2.0016,2.002,2.0022,2.0245,2.0246,0,0,0,0,0,0,1.9575,1.9597,1.9748,1.9755,1.9659,1.9746,1.976,1.9794,1.9874,1.9884,1.9827,1.9827,1.9948,1.996,1.9973,2.0064,2.0017,2.0023,2.0027,2.0243,2.0245,2.0247,0,0,0,0,0,0,1.957,1.9588,1.9743,1.9677,1.9697,1.9751,1.9789,1.9797,1.9826,1.9886,1.9897,1.9846,1.9947,1.9963,2.0039,2.0069,2.0026,2.0032,2.024,2.0243,2.0246,2.0246,0,0,0,0,0,0,1.9564,1.9586,1.9612,1.9677,1.97,1.9804,1.9791,1.9801,1.9836,1.9837,1.9907,1.9917,1.9947,2.0028,2.0045,2.0077,2.0037,2.0238,2.0242,2.0245,2.0244,2.0249,2.0253,0,0,0,0,0,1.9557,1.9608,1.9613,1.9631,1.9733,1.9806,1.9819,1.985,1.9838,1.9867,1.9906,1.9915,2.0062,2.0036,2.0055,2.009,2.0236,2.0241,2.0245,2.0242,2.0248,2.0253,0,0,0,0,0,0,1.9548,1.9617,1.9623,1.9697,1.9745,1.9809,1.9845,1.9855,1.991,1.9908,1.9947,1.9963,2.0037,2.0071,2.004,2.0165,2.0149,2.0157,2.014,2.0146,2.0151,2.0142,2.0043,0,0,0,0,0,1.9553,1.9604,1.9663,1.9722,1.9746,1.9791,1.9824,1.9843,1.9896,1.9917,1.9962,2.0015,2.0074,2.0112,2.0169,2.0248,2.0266,2.0282,2.0286,2.029,2.0297,2.0345,2.0354,2.0261,2.0261,2.0261,0,0,1.9567,1.9611,1.9641,1.9721,1.9761,1.9815,1.9808,1.9865,1.9907,1.9927,2.0001,2.0035,2.0097,2.0176,2.0212,2.0206,2.0326,2.0295,2.0297,2.0303,2.035,2.0359,2.0367,2.0264,2.0263,2.0263,0,0,1.962,1.9657,1.9712,1.9751,1.9811,1.9841,1.9854,1.9917,1.994,2.0014,2.0031,2.0083,2.0182,2.0226,2.0261,2.0332,2.0344,2.035,2.0375,2.0421,2.0428,2.0435,2.0463,2.0473,2.0357,2.0357,2.0357,0,1.9631,1.971,1.9739,1.9796,1.9832,1.985,1.9908,1.9945,2.0021,2.0048,2.0038,2.0165,2.0208,2.0298,2.0315,2.0342,2.0361,2.0343,2.0424,2.0431,2.0438,2.0466,2.0476,2.0358,2.0357,2.0357,2.0357,0,1.9722,1.9777,1.9814,1.9885,1.9925,1.9982,2.0022,2.006,2.0077,2.0109,2.0186,2.0238,2.0307,2.0329,2.0346,2.0423,2.0418,2.0416,2.0401,2.0447,2.0474,2.0484,2.0358,2.0358,2.0358,2.0358,0,0,1.9773,1.9859,1.9872,1.9906,1.9973,2.0018,2.0077,2.0142,2.0175,2.0227,2.028,2.0364,2.0363,2.0404,2.0426,2.0466,2.0523,2.0461,2.0463,2.0473,2.0614,2.0617,2.0628,2.053,2.0532,2.0534,2.061,0,1.9836,1.9939,1.9967,2.0056,2.0109,2.0128,2.018,2.0228,2.026,2.0312,2.0348,2.0408,2.0401,2.0426,2.0466,2.0507,2.0553,2.0502,2.0583,2.0586,2.0569,2.0642,2.0644,2.0713,2.062,2.0622,2.0623,0,1.9923,1.9975,2.0068,2.0131,2.0154,2.02,2.0263,2.0312,2.0369,2.0389,2.0434,2.0454,2.0519,2.0499,2.0592,2.0557,2.0592,2.0618,2.0621,2.0632,2.0609,2.0657,2.0736,2.0747,2.064,2.0638,2.0637,0,1.9954,2.0048,2.0117,2.0144,2.0218,2.025,2.0283,2.0338,2.0376,2.0432,2.0458,2.0522,2.0558,2.0608,2.0645,2.0627,2.0736,2.0719,2.0759,2.0758,2.0783,2.0781,2.0871,2.0801,2.08,2.08,2.08,0,2.0023,2.008,2.0132,2.0174,2.024,2.0273,2.0338,2.0372,2.0421,2.0473,2.0493,2.0542,2.0587,2.0643,2.0672,2.0747,2.0762,2.0783,2.0791,2.0783,2.0781,2.0808,2.0806,2.0803,2.0802,2.0802,2.0801,0,2.007,2.0106,2.0183,2.0246,2.0263,2.0309,2.0365,2.0409,2.044,2.0506,2.0524,2.0575,2.0642,2.0684,2.0769,2.0789,2.0872,2.0877,2.0852,2.0856,2.0895,2.0892,2.1008,2.1026,2.0941,2.0942,2.0942,0,2.0113,2.0157,2.0225,2.026,2.0292,2.0348,2.0387,2.0422,2.0462,2.0531,2.0568,2.0635,2.0691,2.0798,2.0845,2.0911,2.092,2.0956,2.093,2.0921,2.0924,2.0922,2.0928,2.0961,2.0961,2.0962,2.0963,0,2.0186,2.0202,2.0255,2.0316,2.0361,2.0411,2.0461,2.049,2.0534,2.0579,2.0646,2.0689,2.0776,2.0844,2.0915,2.0952,2.0967,2.097,2.0983,2.0977,2.0962,2.0973,2.0867,2.0968,2.0967,2.0967,2.0967,2.0966,2.0234,2.0275,2.0329,2.0389,2.043,2.0477,2.0522,2.0559,2.0615,2.0687,2.0705,2.0777,2.0835,2.0931,2.0969,2.1028,2.1023,2.1042,2.1047,2.1052,2.1054,2.095,2.1041,2.1041,2.1041,2.1041,2.1041,0,2.0311,2.0346,2.0401,2.047,2.0518,2.0523,2.058,2.0621,2.0683,2.0734,2.0789,2.0868,2.0935,2.0987,2.1056,2.1093,2.1102,2.1111,2.111,2.1119,2.1053,2.1036,2.1103,2.1103,2.1103,2.1103,2.1103,2.1103,2.0356,2.0427,2.0449,2.0542,2.0578,2.0647,2.0679,2.0723,2.0765,2.0852,2.0906,2.0939,2.0992,2.1066,2.1128,2.1142,2.1168,2.1176,2.1192,2.113,2.1123,2.1117,2.1101,2.1181,2.1181,2.1254,2.1254,2.1255]},{"header":{"parameterUnit":"m.s-1","parameterCategory":1,"la1":30.2991,"la2":30.254,"lo1":-89.0895,"lo2":-89.0444,"dy":0.0017,"dx":0.0017,"nx":28,"ny":28,"refTime":"2026-02-24T09:00:00:Z","depth":0,"parameterNumber":3,"parameterNumberName":"V-component_of_WINDS"},"data":[0,0,0,0,0,0,0,0,0,0,0,0,0,0,0,0,0,0,0,0,0,0,0,0,0,0,0,0,0,0,0,0,0,0,0,0,0,0,0,0,0,0,0,0,0,0,0,0,0,0,0,0,0,0,0,0,0,0,5.7285,5.7285,0,5.736,5.7361,5.7362,5.738,5.7379,5.7379,5.7378,5.745,5.7452,5.7454,0,0,0,0,0,0,0,0,0,0,0,0,0,5.7152,5.7155,5.7285,5.7285,5.7286,5.736,5.7361,5.7362,5.738,5.7379,5.7378,5.7378,5.7449,5.7452,5.7455,0,0,0,0,0,0,0,0,0,0,0,0,0,5.7217,5.7156,5.7284,5.7304,5.7307,5.736,5.7361,5.7362,5.738,5.7379,5.7378,5.7378,5.7448,5.7451,5.7455,5.7492,0,0,5.7466,5.7467,0,0,0,0,0,0,0,0,5.7213,5.7222,5.73,5.7303,5.7306,5.736,5.7341,5.7405,5.738,5.7352,5.7378,5.7377,5.742,5.7426,5.7441,5.7495,5.7498,5.7466,5.7468,5.747,5.7471,0,0,0,0,0,0,0,5.7209,5.7219,5.7314,5.7301,5.7305,5.7308,5.7317,5.7353,5.7389,5.7354,5.7356,5.7365,5.7421,5.7438,5.7443,5.7499,5.7466,5.7469,5.7471,5.7473,5.759,5.7591,0,0,0,0,0,0,5.7201,5.7215,5.7312,5.7317,5.7257,5.7311,5.7321,5.7343,5.7389,5.7395,5.7365,5.7365,5.7432,5.7439,5.7446,5.7494,5.747,5.7473,5.7475,5.7589,5.759,5.7592,0,0,0,0,0,0,5.7199,5.721,5.7309,5.7266,5.7279,5.7314,5.7339,5.7345,5.7362,5.7397,5.7403,5.7376,5.7432,5.7441,5.7481,5.7497,5.7475,5.7478,5.7588,5.759,5.7591,5.759,0,0,0,0,0,0,5.7195,5.7209,5.7224,5.7266,5.7281,5.7344,5.734,5.7347,5.7369,5.7369,5.7409,5.7414,5.7432,5.7476,5.7485,5.7502,5.7481,5.7587,5.7589,5.7591,5.7589,5.7592,5.7594,0,0,0,0,0,5.719,5.7218,5.7224,5.7236,5.7301,5.7345,5.7353,5.7375,5.737,5.7385,5.7408,5.7413,5.7494,5.748,5.749,5.7508,5.7586,5.7588,5.759,5.7588,5.7591,5.7594,0,0,0,0,0,0,5.7173,5.7224,5.7231,5.7275,5.7306,5.7348,5.7367,5.7376,5.7408,5.7407,5.743,5.7439,5.7479,5.7497,5.7481,5.7548,5.754,5.7544,5.7534,5.7538,5.754,5.7535,5.7484,0,0,0,0,0,5.7175,5.7208,5.725,5.7284,5.73,5.7331,5.7351,5.7365,5.7397,5.741,5.7436,5.7466,5.7498,5.7519,5.755,5.7592,5.7602,5.7609,5.7612,5.7613,5.7617,5.7643,5.7648,5.7599,5.7599,5.7599,0,0,5.7179,5.7211,5.7229,5.7282,5.7308,5.7341,5.7342,5.7376,5.7401,5.7414,5.7456,5.7476,5.7511,5.7553,5.7573,5.757,5.7633,5.7616,5.7617,5.762,5.7646,5.7651,5.7655,5.76,5.76,5.76,0,0,5.7202,5.7229,5.7262,5.7289,5.7329,5.735,5.7358,5.74,5.7415,5.7457,5.7469,5.7498,5.7553,5.7578,5.7598,5.7636,5.7642,5.7645,5.7657,5.7682,5.7686,5.769,5.7705,5.771,5.7648,5.7648,5.7648,0,5.7201,5.7253,5.7277,5.7313,5.7336,5.7353,5.7387,5.7411,5.7458,5.7474,5.747,5.7542,5.7566,5.7616,5.7626,5.7641,5.7651,5.764,5.7684,5.7688,5.7691,5.7706,5.7712,5.7648,5.7648,5.7648,5.7648,0,5.725,5.7286,5.7308,5.7357,5.7383,5.7417,5.7447,5.747,5.7482,5.7504,5.7547,5.7578,5.7617,5.763,5.7641,5.7682,5.768,5.7679,5.7672,5.7696,5.771,5.7716,5.7649,5.7649,5.7649,5.7648,0,0,5.7263,5.7329,5.7337,5.7361,5.7408,5.7436,5.7471,5.7512,5.7533,5.7565,5.7596,5.7643,5.7645,5.7668,5.7682,5.7704,5.7735,5.7702,5.7703,5.7709,5.7785,5.7786,5.7792,5.7739,5.7741,5.7741,5.7782,0,5.7294,5.7361,5.7385,5.7439,5.7474,5.7492,5.7523,5.7555,5.7577,5.7609,5.7632,5.7666,5.7664,5.7679,5.7702,5.7726,5.7751,5.7723,5.7768,5.777,5.7761,5.7799,5.7799,5.7836,5.7788,5.7789,5.779,0,5.7338,5.7375,5.7434,5.748,5.7496,5.7523,5.7565,5.7595,5.7632,5.7647,5.7674,5.7688,5.7726,5.7716,5.7769,5.7751,5.777,5.7786,5.7788,5.7793,5.7782,5.7807,5.7848,5.7854,5.7798,5.7798,5.7797,0,5.7345,5.7409,5.7453,5.7473,5.7527,5.7547,5.757,5.7607,5.7631,5.7667,5.7683,5.7722,5.7743,5.7772,5.7797,5.7787,5.7848,5.784,5.7862,5.7861,5.7874,5.7873,5.792,5.7884,5.7884,5.7884,5.7884,0,5.7377,5.7412,5.7458,5.7485,5.7525,5.7554,5.7593,5.7617,5.765,5.7682,5.7699,5.7729,5.7758,5.7791,5.781,5.7853,5.7861,5.7874,5.7879,5.7874,5.7872,5.7887,5.7886,5.7886,5.7885,5.7885,5.7885,0,5.739,5.7422,5.7472,5.7521,5.7535,5.7563,5.7604,5.7631,5.7655,5.7696,5.7707,5.7743,5.7784,5.7811,5.7861,5.7874,5.7921,5.7924,5.7909,5.7912,5.7933,5.7931,5.7993,5.8003,5.7959,5.7959,5.7959,0,5.7409,5.7438,5.7492,5.7516,5.754,5.7578,5.7605,5.7634,5.766,5.7707,5.7729,5.7771,5.7807,5.787,5.7901,5.794,5.7945,5.7965,5.7951,5.7946,5.7948,5.7947,5.7951,5.7966,5.7967,5.7967,5.7967,0,5.744,5.7456,5.7494,5.7539,5.7571,5.7607,5.7642,5.7661,5.7697,5.7725,5.7769,5.7797,5.7851,5.7893,5.7936,5.7959,5.797,5.7972,5.7979,5.7974,5.7965,5.7973,5.7917,5.797,5.797,5.7969,5.7969,5.7969,5.7458,5.7486,5.7529,5.7572,5.7603,5.7638,5.7667,5.7696,5.7733,5.7782,5.7796,5.7842,5.7881,5.7941,5.7965,5.8,5.7998,5.8008,5.8011,5.8014,5.8015,5.7959,5.8008,5.8008,5.8008,5.8008,5.8008,0,5.7492,5.7522,5.7561,5.7613,5.7648,5.7657,5.7698,5.7726,5.7767,5.7803,5.784,5.7891,5.7933,5.7968,5.8011,5.8033,5.8039,5.8043,5.8043,5.8048,5.8013,5.8004,5.8038,5.8038,5.8038,5.8038,5.8038,5.8038,5.7513,5.7562,5.7583,5.7647,5.7676,5.7723,5.7746,5.7778,5.7808,5.7866,5.7902,5.7926,5.7962,5.8009,5.8048,5.8057,5.8073,5.8077,5.8087,5.8054,5.805,5.8047,5.8038,5.8079,5.808,5.8119,5.812,5.812]}]]